When you browse on this site, cookies collect data to enhance your experience and personalize the content and advertising you see.
Visit our Privacy Policy to learn more. By continuing to use the site, you agree to this use of cookies and data.
  • în România
  • Lista ţărilor
  • Pe 7 zile
  • Temperatura apei
  • Hartă satelitară
  • Meteo pe hartă
  • Widget-uri
  • user-avatar
    Intrare

    Meteo pe oră la Zizino

    Astăzi, 18 Ianuarie, Vineri

    Timp Temperatura Precipitaţii Vânt Presiune Umiditate
    00:00 -1°C° 0 mm 6 m/s 726 mmHg 85%
    01:00 -1°C° 0 mm 5 m/s 726 mmHg 85%
    02:00 -1°C° 0 mm 5 m/s 727 mmHg 85%
    03:00 -2°C° 0 mm 5 m/s 727 mmHg 85%
    04:00 -2°C° 0 mm 4 m/s 728 mmHg 85%
    05:00 -3°C° 0 mm 4 m/s 729 mmHg 85%
    06:00 -4°C° 0 mm 4 m/s 729 mmHg 86%
    07:00 -5°C° 0 mm 3 m/s 730 mmHg 86%
    08:00 -6°C° 0 mm 3 m/s 730 mmHg 87%
    09:00 -6°C° 0 mm 3 m/s 731 mmHg 86%
    10:00 -6°C° 0 mm 3 m/s 732 mmHg 86%
    11:00 -7°C° 0 mm 3 m/s 732 mmHg 85%
    12:00 -7°C° 0 mm 3 m/s 732 mmHg 86%
    13:00 -6°C° 0 mm 2 m/s 733 mmHg 87%
    14:00 -6°C° 0 mm 2 m/s 733 mmHg 88%
    15:00 -4°C° 0.2 mm 1 m/s 733 mmHg 90%
    16:00 -6°C° 0.2 mm 1 m/s 733 mmHg 93%
    17:00 -6°C° 0.2 mm 1 m/s 732 mmHg 95%
    18:00 -6°C° 0.6 mm 1 m/s 732 mmHg 95%
    19:00 -7°C° 0.6 mm 2 m/s 732 mmHg 95%
    20:00 -8°C° 0.6 mm 2 m/s 732 mmHg 95%
    21:00 -8°C° 0.1 mm 2 m/s 733 mmHg 94%
    22:00 -9°C° 0.1 mm 2 m/s 733 mmHg 93%
    23:00 -9°C° 0.1 mm 2 m/s 734 mmHg 92%

    Mâine, 19 Ianuarie, Sâmbătă

    Timp Temperatura Precipitaţii Vânt Presiune Umiditate
    00:00 -10°C° 0 mm 2 m/s 734 mmHg 93%
    01:00 -10°C° 0 mm 2 m/s 735 mmHg 93%
    02:00 -12°C° 0 mm 2 m/s 736 mmHg 94%
    03:00 -13°C° 0 mm 3 m/s 736 mmHg 94%
    04:00 -12°C° 0 mm 3 m/s 736 mmHg 94%
    05:00 -12°C° 0 mm 3 m/s 736 mmHg 93%
    06:00 -10°C° 0 mm 3 m/s 737 mmHg 93%
    07:00 -10°C° 0 mm 3 m/s 737 mmHg 92%
    08:00 -10°C° 0 mm 3 m/s 737 mmHg 92%
    09:00 -10°C° 0.1 mm 4 m/s 738 mmHg 90%
    10:00 -9°C° 0.1 mm 4 m/s 738 mmHg 89%
    11:00 -8°C° 0.1 mm 4 m/s 738 mmHg 87%
    12:00 -8°C° 0.2 mm 4 m/s 738 mmHg 87%
    13:00 -8°C° 0.2 mm 4 m/s 739 mmHg 86%
    14:00 -7°C° 0.2 mm 3 m/s 739 mmHg 85%
    15:00 -8°C° 0.1 mm 3 m/s 739 mmHg 88%
    16:00 -7°C° 0.1 mm 2 m/s 739 mmHg 90%
    17:00 -8°C° 0.1 mm 2 m/s 740 mmHg 93%
    18:00 -9°C° 0 mm 2 m/s 740 mmHg 93%
    19:00 -9°C° 0 mm 2 m/s 740 mmHg 93%
    20:00 -10°C° 0 mm 2 m/s 741 mmHg 94%
    21:00 -9°C° 0 mm 2 m/s 741 mmHg 94%
    22:00 -9°C° 0 mm 2 m/s 741 mmHg 94%
    23:00 -9°C° 0 mm 2 m/s 741 mmHg 94%

    Poimâine, 20 Ianuarie, Duminică

    Timp Temperatura Precipitaţii Vânt Presiune Umiditate
    00:00 -9°C° 0 mm 3 m/s 741 mmHg 92%
    01:00 -8°C° 0 mm 3 m/s 742 mmHg 91%
    02:00 -9°C° 0 mm 4 m/s 742 mmHg 89%
    03:00 -9°C° 0 mm 4 m/s 741 mmHg 89%
    04:00 -9°C° 0 mm 4 m/s 740 mmHg 89%
    05:00 -10°C° 0 mm 4 m/s 740 mmHg 89%
    06:00 -10°C° 0.1 mm 5 m/s 740 mmHg 89%
    07:00 -8°C° 0.1 mm 5 m/s 739 mmHg 89%
    08:00 -7°C° 0.1 mm 5 m/s 739 mmHg 89%
    09:00 -7°C° 0.2 mm 5 m/s 739 mmHg 89%
    10:00 -6°C° 0.2 mm 5 m/s 738 mmHg 89%
    11:00 -5°C° 0.2 mm 5 m/s 738 mmHg 89%
    12:00 -5°C° 0.5 mm 4 m/s 738 mmHg 90%
    13:00 -5°C° 0.5 mm 4 m/s 738 mmHg 91%
    14:00 -5°C° 0.5 mm 4 m/s 737 mmHg 92%
    15:00 -6°C° 0.2 mm 3 m/s 738 mmHg 91%
    16:00 -7°C° 0.2 mm 3 m/s 738 mmHg 90%
    17:00 -8°C° 0.2 mm 3 m/s 738 mmHg 89%
    18:00 -9°C° 0 mm 3 m/s 739 mmHg 88%
    19:00 -10°C° 0 mm 3 m/s 739 mmHg 87%
    20:00 -10°C° 0 mm 3 m/s 739 mmHg 86%
    21:00 -13°C° 0 mm 3 m/s 740 mmHg 89%
    22:00 -14°C° 0 mm 2 m/s 740 mmHg 92%
    23:00 -15°C° 0 mm 2 m/s 740 mmHg 94%

    21 Ianuarie, Luni

    Timp Temperatura Precipitaţii Vânt Presiune Umiditate
    00:00 -16°C° 0 mm 2 m/s 740 mmHg 95%
    01:00 -16°C° 0 mm 2 m/s 740 mmHg 96%
    02:00 -17°C° 0 mm 2 m/s 741 mmHg 97%
    03:00 -16°C° 0 mm 2 m/s 740 mmHg 97%
    04:00 -16°C° 0 mm 2 m/s 740 mmHg 97%
    05:00 -16°C° 0 mm 2 m/s 740 mmHg 96%
    06:00 -15°C° 0 mm 2 m/s 740 mmHg 96%
    07:00 -15°C° 0 mm 2 m/s 741 mmHg 95%
    08:00 -15°C° 0 mm 2 m/s 741 mmHg 94%
    09:00 -15°C° 0 mm 3 m/s 741 mmHg 93%
    10:00 -15°C° 0 mm 3 m/s 741 mmHg 92%
    11:00 -14°C° 0 mm 3 m/s 741 mmHg 91%
    12:00 -14°C° 0 mm 3 m/s 741 mmHg 89%
    13:00 -13°C° 0 mm 3 m/s 741 mmHg 87%
    14:00 -13°C° 0 mm 3 m/s 741 mmHg 86%
    15:00 -14°C° 0.1 mm 3 m/s 741 mmHg 88%
    16:00 -15°C° 0.1 mm 3 m/s 742 mmHg 90%
    17:00 -14°C° 0.1 mm 2 m/s 742 mmHg 92%
    18:00 -15°C° 0 mm 2 m/s 742 mmHg 93%
    19:00 -16°C° 0 mm 2 m/s 742 mmHg 94%
    20:00 -17°C° 0 mm 2 m/s 743 mmHg 95%
    21:00 -18°C° 0 mm 2 m/s 743 mmHg 95%
    22:00 -18°C° 0 mm 2 m/s 743 mmHg 95%
    23:00 -19°C° 0 mm 2 m/s 744 mmHg 95%

    22 Ianuarie, Marţi

    Timp Temperatura Precipitaţii Vânt Presiune Umiditate
    00:00 -19°C° 0 mm 2 m/s 744 mmHg 95%
    01:00 -19°C° 0 mm 2 m/s 744 mmHg 95%
    02:00 -20°C° 0 mm 2 m/s 744 mmHg 95%
    03:00 -20°C° 0 mm 2 m/s 744 mmHg 96%
    04:00 -20°C° 0 mm 2 m/s 744 mmHg 97%
    05:00 -20°C° 0 mm 2 m/s 744 mmHg 97%
    06:00 -21°C° 0 mm 2 m/s 744 mmHg 98%
    07:00 -21°C° 0 mm 2 m/s 744 mmHg 98%
    08:00 -21°C° 0 mm 2 m/s 744 mmHg 98%
    09:00 -17°C° 0 mm 1 m/s 744 mmHg 97%
    10:00 -16°C° 0 mm 1 m/s 744 mmHg 96%
    11:00 -15°C° 0 mm 1 m/s 744 mmHg 95%
    12:00 -14°C° 0 mm 1 m/s 744 mmHg 95%
    13:00 -14°C° 0 mm 1 m/s 744 mmHg 95%
    14:00 -14°C° 0 mm 0 m/s 743 mmHg 95%
    15:00 -15°C° 0 mm 0 m/s 743 mmHg 96%
    16:00 -16°C° 0 mm 1 m/s 743 mmHg 97%
    17:00 -17°C° 0 mm 1 m/s 743 mmHg 98%
    18:00 -17°C° 0 mm 1 m/s 743 mmHg 99%
    19:00 -18°C° 0 mm 1 m/s 743 mmHg 99%
    20:00 -18°C° 0 mm 1 m/s 743 mmHg 99%
    21:00 -18°C° 0 mm 1 m/s 743 mmHg 99%
    22:00 -19°C° 0 mm 1 m/s 743 mmHg 99%
    23:00 -19°C° 0 mm 1 m/s 743 mmHg 99%

    23 Ianuarie, Miercuri

    Timp Temperatura Precipitaţii Vânt Presiune Umiditate
    00:00 -19°C° 0 mm 1 m/s 743 mmHg 99%
    01:00 -20°C° 0 mm 1 m/s 744 mmHg 99%
    02:00 -20°C° 0 mm 1 m/s 744 mmHg 99%
    03:00 -20°C° 0 mm 1 m/s 744 mmHg 99%
    04:00 -20°C° 0 mm 1 m/s 744 mmHg 99%
    05:00 -21°C° 0 mm 1 m/s 744 mmHg 99%
    06:00 -21°C° 0 mm 1 m/s 744 mmHg 99%
    07:00 -21°C° 0 mm 1 m/s 744 mmHg 99%
    08:00 -21°C° 0 mm 1 m/s 745 mmHg 99%
    09:00 -20°C° 0 mm 1 m/s 745 mmHg 98%
    10:00 -19°C° 0 mm 1 m/s 745 mmHg 97%
    11:00 -18°C° 0 mm 1 m/s 745 mmHg 96%
    12:00 -17°C° 0 mm 1 m/s 745 mmHg 95%
    13:00 -16°C° 0 mm 1 m/s 745 mmHg 95%
    14:00 -16°C° 0 mm 1 m/s 745 mmHg 95%
    15:00 -17°C° 0 mm 1 m/s 745 mmHg 96%
    16:00 -17°C° 0 mm 1 m/s 745 mmHg 96%
    17:00 -18°C° 0 mm 1 m/s 745 mmHg 97%
    18:00 -18°C° 0 mm 1 m/s 746 mmHg 97%
    19:00 -19°C° 0 mm 1 m/s 746 mmHg 97%
    20:00 -19°C° 0 mm 1 m/s 746 mmHg 98%
    21:00 -20°C° 0 mm 1 m/s 746 mmHg 98%
    22:00 -20°C° 0 mm 1 m/s 746 mmHg 98%
    23:00 -21°C° 0 mm 1 m/s 746 mmHg 98%
    Arată mai mult